Location: Pittsburgh
(40.4410°N, 79.9960°W)
Time: 20:07:36
(UTC-04:00)

BlueWalker 3 - Pass Details

Date: 21 March 2026
Orbit: 449 x 457 km, 53.2° (Epoch: 12 April)

Event Time Altitude Azimuth Distance (km) Brightness Sun altitude
Rises 22:19:59 0° 255° (WSW) 2,459 6.0 -31.0°
Reaches altitude 10° 22:22:16 10° 266° (W) 1,590 5.1 -31.3°
Enters shadow 22:22:28 11° 267° (W) 1,517 5.0 -31.4°
